Tracking 19192 objects as of 20-Jun-2018
HD Live streaming from Space Station
objects crossing your sky now

LUOJIA-1 01

Track LUOJIA-1 01 now!
10-day predictions


NORAD ID: 43485
Int'l Code: 2018-048B
Perigee: 640.3 km
Apogee: 655.3 km
Inclination: 98.1 °
Period: 97.5 minutes
Semi major axis: 7018 km
RCS: Unknown
Launch date: June 2, 2018
Source: People's Republic of China (PRC)
Launch site: Jiuquan Satellite Launch Center, China (JSC)
aabbcc
Your satellite tracking list
Your tracking list is empty




NASA's NSSDC Master Catalog

Two Line Element Set (TLE):
1 43485U 18048B   18171.18030337  .00000129  00000-0  26005-4 0  9997
2 43485  98.0503 246.1588 0010679 211.9966 148.0606 14.76428701  2650
Source of the keplerian elements: AFSPC